Savannah, GA

4:18 PM EDT on May 28, 2017 (GMT -0400)
Savannah International

Weather History for KSAV - November, 2013

Change the Weather History Date:

Tuesday, November 5, 2013

  Actual Average Record
Temperature  
Mean Temperature 61 °F 62 °F  
Max Temperature 74 °F 74 °F 85 °F (2003)
Min Temperature 47 °F 51 °F 30 °F (1966)
Degree Days  
Heating Degree Days 4 5  
Month to date heating degree days 18 21  
Since 1 July heating degree days 52 78  
Cooling Degree Days 0 2  
Month to date cooling degree days 12 10  
Year to date cooling degree days 2423 2422  
Growing Degree Days 10 (Base 50)    
Moisture  
Dew Point 49 °F    
Average Humidity 66    
Maximum Humidity 90    
Minimum Humidity 41    
Precipitation  
Precipitation 0.04 in 0.08 in 1.73 in (1993)
Month to date precipitation 1.05 0.38  
Year to date precipitation 50.23 43.02  
Sea Level Pressure  
Sea Level Pressure 30.34 in    
Wind  
Wind Speed 10 mph (NNE)    
Max Wind Speed 15 mph    
Max Gust Speed 21 mph    
Visibility 9 miles    
Events Rain    
T = Trace of Precipitation, MM = Missing Value Source: NWS Daily Summary

Daily Weather History Graph

Daily Weather History Graph

Search for Another Location

Airport or City:

Trip Planner

Search our weather history database for the weather conditions in past years. The results will help you decide how hot, cold, wet, or windy it might be!

Date:

Astronomy

Nov. 05, 2013 Rise Set
Actual Time 6:45 AM EST 5:31 PM EST
Civil Twilight 6:19 AM EST 5:56 PM EST
Nautical Twilight 5:50 AM EST 6:25 PM EST
Astronomical Twilight 5:21 AM EST 6:54 PM EST
Moon 8:53 AM EST (11/5) 7:36 PM EST (11/5)
Length of Visible Light 11h 36m
Length of Day
10h 46m
Waxing Crescent, 6% of the Moon is Illuminated
Nov 5
Waxing Crescent
Nov 10
First Quarter
Nov 17
Full
Nov 25
Last Quarter
Dec 2
New

Hourly Weather History & Observations

Time (EST) Temp. Dew Point Humidity Pressure Visibility Wind Dir Wind Speed Gust Speed Precip Events Conditions
12:53 AM 53.1 °F 42.1 °F 66% 30.38 in 10.0 mi NNE 9.2 mph - N/A   Mostly Cloudy
1:53 AM 52.0 °F 41.0 °F 66% 30.37 in 10.0 mi NNE 12.7 mph - N/A   Mostly Cloudy
2:53 AM 52.0 °F 39.9 °F 63% 30.35 in 10.0 mi NNE 12.7 mph - N/A   Mostly Cloudy
3:53 AM 50.0 °F 39.9 °F 68% 30.35 in 10.0 mi NNE 12.7 mph - N/A   Clear
4:53 AM 48.0 °F 39.9 °F 74% 30.36 in 10.0 mi NNE 11.5 mph 18.4 mph N/A   Clear
5:53 AM 46.9 °F 39.9 °F 77% 30.38 in 10.0 mi North 10.4 mph - N/A   Partly Cloudy
6:53 AM 46.9 °F 39.9 °F 77% 30.38 in 10.0 mi NNE 11.5 mph 16.1 mph N/A   Scattered Clouds
7:53 AM 48.9 °F 39.9 °F 71% 30.40 in 10.0 mi North 10.4 mph - N/A   Scattered Clouds
8:53 AM 52.0 °F 41.0 °F 66% 30.40 in 10.0 mi NNE 12.7 mph - N/A   Scattered Clouds
9:53 AM 57.0 °F 42.1 °F 57% 30.40 in 10.0 mi North 5.8 mph - N/A   Scattered Clouds
10:53 AM 63.0 °F 44.1 °F 50% 30.39 in 10.0 mi NNE 10.4 mph - N/A   Scattered Clouds
11:53 AM 68.0 °F 46.0 °F 45% 30.36 in 10.0 mi North 9.2 mph - N/A   Mostly Cloudy
12:53 PM 72.0 °F 46.9 °F 41% 30.33 in 10.0 mi North 10.4 mph - N/A   Scattered Clouds
1:53 PM 72.0 °F 48.0 °F 43% 30.31 in 10.0 mi NNE 11.5 mph - N/A   Mostly Cloudy
2:53 PM 72.0 °F 48.9 °F 44% 30.30 in 10.0 mi NNE 11.5 mph - N/A   Mostly Cloudy
3:53 PM 71.1 °F 51.1 °F 49% 30.31 in 10.0 mi NE 9.2 mph - N/A   Overcast
4:36 PM 69.8 °F 53.6 °F 56% 30.31 in 10.0 mi NNE 10.4 mph - 0.00 in   Overcast
4:53 PM 66.0 °F 55.9 °F 70% 30.31 in 8.0 mi NNE 8.1 mph - 0.00 in   Light Drizzle
5:51 PM 62.6 °F 57.2 °F 82% 30.32 in 2.5 mi NNE 6.9 mph - 0.00 in Rain Light Rain
5:53 PM 62.1 °F 57.9 °F 86% 30.32 in 2.5 mi NE 8.1 mph - 0.00 in Rain Light Rain
6:13 PM 62.6 °F 57.2 °F 82% 30.32 in 2.5 mi NNE 8.1 mph - 0.02 in Rain Light Rain
6:46 PM 60.8 °F 57.2 °F 88% 30.33 in 6.0 mi NNE 10.4 mph - 0.04 in Rain Light Rain
6:53 PM 61.0 °F 57.9 °F 90% 30.32 in 6.0 mi North 9.2 mph - 0.04 in Rain Light Rain
8:20 PM 60.8 °F 57.2 °F 88% 30.32 in 10.0 mi NE 10.4 mph - N/A   Overcast
8:47 PM 60.8 °F 57.2 °F 88% 30.33 in 10.0 mi NE 9.2 mph - N/A   Overcast
8:53 PM 61.0 °F 57.0 °F 87% 30.33 in 10.0 mi NNE 10.4 mph - N/A   Overcast
9:53 PM 60.1 °F 55.9 °F 86% 30.33 in 10.0 mi NE 9.2 mph - N/A   Overcast
10:19 PM 60.8 °F 55.4 °F 82% 30.32 in 10.0 mi NE 10.4 mph - N/A   Mostly Cloudy
10:53 PM 59.0 °F 55.9 °F 90% 30.32 in 10.0 mi NNE 8.1 mph - N/A   Overcast
11:53 PM 57.9 °F 55.0 °F 90% 30.31 in 10.0 mi NNE 9.2 mph - N/A   Overcast